Regional Weather Roundup
Issued by NWS Northern Indiana

Home | Current Version | Previous Version | Text Only | Print | Product List | Glossary On
Versions: 1 2 3 4 5 6 7 8 9 10 11 12 13 14 15 16 17 18 19 20 21 22 23 24 25 26 27 28 29 30 31 32 33 34 35 36 37 38 39 40 41 42 43 44 45 46 47 48 49 50
000
ASUS43 KIWX 191210
RWRIWX

KIWX WEATHER ROUNDUP
NATIONAL WEATHER SERVICE NORTHERN INDIANA
800 AM EDT FRI SEP 19 2014

NOTE: "FAIR" INDICATES FEW OR NO CLOUDS BELOW 12,000 FEET WITH NO
SIGNIFICANT WEATHER AND/OR OBSTRUCTIONS TO VISIBILITY.

* THESE STATIONS ARE NOT UNDER NWS QUALITY CONTROL. THEY ALSO MAY NOT
  REPORT WEATHER SUCH AS PRECIPITATION OR FOG.

INZ001>027-191300-
NORTHERN INDIANA

CITY           SKY/WX    TMP DP  RH WIND       PRES   REMARKS
GARY*          PTCLDY    55  50  82 SE9       30.18R
VALPARAISO     CLEAR     47  46  97 E6        30.20R FOG
6HR MIN TEMP:  47; 6HR MAX TEMP:  51;

MICHIGAN CITY* CLEAR     52  52 100 SE6       30.19F FOG
LAPORTE*       FOG       46  46 100 E5        30.21R VSB 1
6HR MIN TEMP:  45; 6HR MAX TEMP:  51;

KNOX*          CLEAR     49  47  93 SE3       30.19R
6HR MIN TEMP:  41; 6HR MAX TEMP:  89;

SOUTH BEND     CLEAR     51  49  92 E6        30.22R FOG
6HR MIN TEMP:  51; 6HR MAX TEMP:  58;

ELKHART*       CLEAR     48  48 100 E5        30.22S FOG
GOSHEN         CLEAR     51  49  92 E6        30.22R FOG
6HR MIN TEMP:  50; 6HR MAX TEMP:  54;

MONTICELLO*    CLEAR     50  49  95 E3        30.19R
6HR MIN TEMP:  50; 6HR MAX TEMP:  55;

LOGANSPORT*    CLEAR     48  46  93 E3        30.20R FOG
ROCHESTER*       N/A     50  50 100 CALM      30.22R FOG
WARSAW*        CLEAR     50  50 100 E7        30.22R FOG
ANGOLA*        PTCLDY    50  48  93 E6        30.24R
FORT WAYNE     PTCLDY    48  47  96 E5        30.24R FOG
6HR MIN TEMP:  48; 6HR MAX TEMP:  52;

HUNTINGTON*    FOG       50  50 100 E5        30.22R VSB 1/4
6HR MIN TEMP:  47; 6HR MAX TEMP:  51;

PERU/GRISSOM   CLEAR     50  50 100 E6        30.20R
6HR MIN TEMP:  49; 6HR MAX TEMP:  55;

MARION*        CLEAR     48  46  93 E5        30.21R FOG
6HR MIN TEMP:  40; 6HR MAX TEMP:  90;


$$
INZ028>050-191300-
CENTRAL INDIANA

CITY           SKY/WX    TMP DP  RH WIND       PRES   REMARKS
LAFAYETTE      CLEAR     49  48  97 NE5       30.18R
6HR MIN TEMP:  48; 6HR MAX TEMP:  53;

KOKOMO*        CLEAR     46  43  87 E5        30.21R
6HR MIN TEMP:  46; 6HR MAX TEMP:  52;

MUNCIE*        CLEAR     47  45  93 E3        30.20R FOG
6HR MIN TEMP:  45; 6HR MAX TEMP:  51;

INDIANAPOLIS   PTCLDY    53  48  83 E6        30.17R
6HR MIN TEMP:  53; 6HR MAX TEMP:  58;


$$
MIZ043>046-050>051-056>058-064>065-071>073-077>080-191300-
SOUTHWEST LOWER MICHIGAN

CITY           SKY/WX    TMP DP  RH WIND       PRES   REMARKS
BATTLE CREEK   CLEAR     48  45  89 SE5       30.24R FOG
6HR MIN TEMP:  48; 6HR MAX TEMP:  52;

BENTON HARBOR  CLEAR     51  50  96 SE8       30.19F FOG
6HR MIN TEMP:  49; 6HR MAX TEMP:  52;

COLDWATER*     CLEAR     47  46  97 SE3       30.24R FOG
6HR MIN TEMP:  47; 6HR MAX TEMP:  52;

HILLSDALE*     CLEAR     46  46  99 CALM      30.24R FOG
6HR MIN TEMP:  45; 6HR MAX TEMP:  50;

HOLLAND        CLEAR     49  46  90 E5        30.22R FOG
6HR MIN TEMP:  47; 6HR MAX TEMP:  52;

GRAND RAPIDS   FOG       49  49 100 SE7       30.24R VSB 1/4
6HR MIN TEMP:  46; 6HR MAX TEMP:  49;

KALAMAZOO      CLOUDY    44  42  93 CALM      30.24R FOG
6HR MIN TEMP:  44; 6HR MAX TEMP:  50;

STURGIS*       CLEAR     46  46 100 E3        30.22S FOG
THREE RIVERS*    N/A     46  46  97 CALM      30.23S FOG
6HR MIN TEMP:  46; 6HR MAX TEMP:  52;


$$
OHZ001>008-015>018-024>025-191300-
NORTHWEST OHIO

CITY           SKY/WX    TMP DP  RH WIND       PRES   REMARKS
WAUSEON*       FAIR      45  45 100 NE5       30.25R FOG
DEFIANCE       CLEAR     48  45  89 NE5       30.25R FOG
6HR MIN TEMP:  47; 6HR MAX TEMP:  52;

FINDLAY        PTCLDY    51  49  92 E6        30.23R FOG
6HR MIN TEMP:  50; 6HR MAX TEMP:  55;

TOLEDO EXPRESS CLEAR     46  45  96 CALM      30.25R
6HR MIN TEMP:  45; 6HR MAX TEMP:  53;

TOLEDO METCALF CLEAR     49  45  86 N3        30.25R
6HR MIN TEMP:  47; 6HR MAX TEMP:  55;

LIMA           CLEAR     50  47  89 E8        30.22R FOG
6HR MIN TEMP:  48; 6HR MAX TEMP:  52;


$$
&&


USA.gov is the U.S. government's official web portal to all federal, state and local government web resources and services.